Cavern City Air Terminal
KCNM : now visible

Airfield :











YOU CAN JOIN US ON...

 
LOGIN :

Register | Disclaimer

   EN    FR    IT 

 









Legend :    VFR   Marginal VFR   IFR   Intensive IFR   Very Intensive IFR
Visi :
Ceiling :
>= 8 km
>= 3000ft
5 to 8 km
1000 to 3000 ft
1500m to 5 km
500 to 1000 ft
800 to 1500m
200 to 500 ft
< 800m
< 200 ft
Symbols :   Thunderstorms  Fog  Heavy snow  Heavy precipitations  Wind > 20 kt






- Airport Elevation : 3295 ft
- IATA code : CNM


KCNM - Cavern City Air Terminal

CURRENT METAR :
  • 130353Z AUTO 04004KT 10SM CLR 16/M03 A2995 RMK AO2 SLP107 T01611033

EXPIRED METARs :
  • 130253Z AUTO 07007KT 10SM CLR 18/M03 A2992 RMK AO2 SLP095 T01831033 53016
  • 130153Z AUTO 07008KT 10SM CLR 20/M04 A2988 RMK AO2 SLP083 T02001039

TAF KCNM
Valid from the 13 at 00:00 until the 14 at 00:00 UTC


122320Z 1300/1324 09006KT P6SM FEW150
FM131500 12009KT P6SM BKN035
KZAB FIR / North America



MET'MAP, your aeronautical weather chart ! - Copyright ORBIFLY December 2007 - Disclaimer

ORBIFLY MET'MAP TEAM :

Programming & Development : Alexandra Zaïnal
Concept & original design : Baudouin d'Aumeries
Assistance for programming : Marc-Olivier Méhu
Technical & hardware support : Manuel Goepfert

Contact : metmap@orbifly.com




SOURCES & CREDITS :

   NOAA       Earth
Advisory